FALCON 9 R/B, 60234

Orbit data source: Space-Track

FALCON 9 R/B, 60234 is space debris in HEO originally from a launch on Mon, 08 Jul 2024 UTC launched from the Air Force Eastern Test Range (AFETR). Debris objects in space refer to the collection of defunct objects orbiting the Earth. Examples of debris include non-operational satellites, rocket bodies, and fragments generated from explosions, collisions, or faulty payload assembly.

Loading next visibility...
Identifier
60234, 2024-127B
Orbit
HEO
Country
Flag of USUS
Related business
Manufacturer
SpaceX
Mission
Spacecraft
Bus & Motor
F9ST2, Unknown motor
Mass
~4,000 kg wet, ~4,000 kg dry
Launch date (UTC)
2024-07-08 (1 year ago)
Launch vehicle
Unknown
Launch site
Air Force Eastern Test Range (AFETR)
Object type
Payload
Rocket body
Debris
Shape & HBR
Cyl, 7.8 m
Radar Cross Section
39.980 m², Large (>1 m²)

Expand to show TLE details & history
Last TLE update: 3 days ago

TLE from 3 days ago
0 FALCON 9 R/B
1 60234U 24127B   25309.28232239 -.00000078  00000-0 -29574-3 0  9998
2 60234  26.1471  42.6093 8328330 297.6956   4.2833  1.03880969  4764
Epoch: 2025-11-05T06:46Z
TLE epoch observation values (Epoch: 2025-11-05T06:46:32.654Z)
Latitude
-0.00032°
Longitude
-104.05336°
Altitude
2,779.146 km
Speed
8.796 km/s
True Right ascension
02h 49m 21s
True Declination
0° 00' 01"
Sunlit
Object was in full shadow at epoch
Visualization orbit readout
Latitude
Unknown
Longitude
Unknown
Altitude
Unknown
Speed
Unknown
Apparent Right ascension
Unknown
Apparent Declination
Unknown
Sunlit
N/A
Visualization observer readout
Local Sidereal Time
19:24:08
Azimuth
Unknown
Elevation
Unknown
Doppler factor
Unknown
Orbital elements
Apogee altitude
69,110.48 km
Perigee altitude
506.945 km
Semi-major axis
41,186.85 km
Eccentricity
0.83283
Inclination
26.1471°
RAAN
42.6093°
Arg. of periapsis
297.6956°
True anomaly
67.19825°
Mean anomaly
4.2833°
Eccentric anomaly
22.69091°
Mean motion
0.25966 °/min
Orbital period
1,386.43 mins
BSTAR
-0.00029574
Loading maneuver chart data...
Computing Atmospheric mass density...
Loading historical data...
Loading historical data...
Loading historical data...
Loading historical data...
Loading historical data...
Loading historical data...
Loading historical data...
Other satellites on launch #127 in the year 2024 (2024-07-08 UTC)

Documentation

Showing up to 5 results
|